Regional Weather Roundup
Issued by NWS

Home | Current Version | Previous Version | Graphics & Text | Print | Product List | Glossary On
Versions: 1 2 3 4 5 6 7 8 9 10 11 12 13 14 15 16 17 18 19 20 21 22 23 24 25 26 27 28 29 30 31 32 33 34 35 36 37 38 39 40 41 42 43 44 45 46 47 48 49 50
000
ASUS45 KABQ 251901
RWRNM
NEW MEXICO REGIONAL WEATHER ROUNDUP
NATIONAL WEATHER SERVICE ALBUQUERQUE NM
100 PM MDT MON JUL 25 2016

NOTE: "FAIR" MEANS FEW OR NO CLOUDS BELOW 12,000 FEET AGL WITH NO
       SIGNIFICANT WEATHER OR OBSTRUCTIONS TO VISION.

      THIS PRODUCT IS RELEASED AS TWO VERSIONS.  ONE VERSION NEAR
      THE TOP OF THE HOUR CONTAINING PRELIMINARY DATA FROM ALBUQUERQUE
      AND OTHER STATIONS.  A FINAL VERSION WITH ADDITIONAL DATA IS
      ISSUED ABOUT 10 MINUTES AFTER THE HOUR.

NMZ501-503-504-510>518-252000-
NORTHWEST PLATEAU/NORTHCENTRAL MOUNTAINS

CITY           SKY/WX    TMP DP  RH WIND       PRES   REMARKS
FARMINGTON     FAIR      91  44  19 NE8       30.20F
LOS ALAMOS     FAIR      85  43  23 E6        30.35F
SANTA FE       FAIR      87  46  24 S6        30.28F
TAOS           FAIR      84  41  21 CALM      30.35F
ANGEL FIRE     FAIR      79  43  27 W6        30.43F

$$
NMZ402-403-502-505>509-252000-
WESTCENTRAL MOUNTAINS/SOUTHWEST MOUNTAINS

CITY           SKY/WX    TMP DP  RH WIND       PRES   REMARKS
GALLUP         FAIR      85  46  25 MISG      30.29F
GRANTS         PTSUNNY   86  45  23 E7        30.32F
SILVER CITY    FAIR      89  48  24 SW3       30.21F

$$
NMZ407-409-411-412-252000-
SOUTHERN DESERTS

CITY           SKY/WX    TMP DP  RH WIND       PRES   REMARKS
LORDSBURG      FAIR      91  50  24 NW10G21   30.13F
DEMING         FAIR      95  54  25 E12       30.12F
LAS CRUCES     FAIR      94  48  20 SE9       30.14F
ALAMOGORDO     FAIR      93  50  22 S5        30.11F
T OR C         FAIR      92  52  25 MISG      30.16F

$$
NMZ519>523-252000-
CENTRAL VALLEYS/CENTRAL HIGHLANDS

CITY           SKY/WX    TMP DP  RH WIND       PRES   REMARKS
ALBUQUERQUE    FAIR      90  48  23 VRB6      30.22F
DOUBLE EAGLE     N/A     88  48  25 NW6       30.27F
MORIARTY ARPT  FAIR      85  48  27 SE3       30.31F
CLINES CORNERS FAIR      83  51  33 SE7       30.36F
BELEN          FAIR      90  47  22 SE8       30.21F
SOCORRO        FAIR      92  47  21 SE6       30.18F

$$
NMZ524>526-539-540-252000-
SOUTHCENTRAL MOUNTAINS

CITY           SKY/WX    TMP DP  RH WIND       PRES   REMARKS
RUIDOSO          N/A     82  45  26 S9G20     30.36F

$$
NMZ527>531-252000-
NORTHEAST HIGHLANDS/NORTHEAST PLAINS

CITY           SKY/WX    TMP DP  RH WIND       PRES   REMARKS
LAS VEGAS      FAIR      83  49  30 S12G24    30.34F
RATON          FAIR      84  51  31 VRB3      30.28F
CLAYTON        FAIR      87  59  38 MISG      30.22F

$$
NMZ532>537-252000-
EASTCENTRAL PLAINS

CITY           SKY/WX    TMP DP  RH WIND       PRES   REMARKS
TUCUMCARI      FAIR      93  56  28 MISG      30.13F
CANNON AFB     NOT AVBL
CLOVIS AIRPORT FAIR      93  57  29 SE8       30.16F

$$
NMZ028-029-538-252000-
SOUTHEAST PLAINS

CITY           SKY/WX    TMP DP  RH WIND       PRES   REMARKS
ROSWELL        FAIR      97  52  21 E9G25     30.10F
ARTESIA        FAIR      95  57  28 SE14      30.10F
CARLSBAD       FAIR      94  56  27 VRB3      30.06F
HOBBS          PTSUNNY   91  55  29 E10       30.11F


$$




USA.gov is the U.S. government's official web portal to all federal, state and local government web resources and services.